Time,TemperatureF,DewpointF,PressureIn,WindDirection,WindDirectionDegrees,WindSpeedMPH,WindSpeedGustMPH,Humidity,HourlyPrecipIn,Conditions,Clouds,dailyrainin,SoftwareType,DateUTC
2013-02-25 00:00:00,19.4,1.1,28.97,North,-999,-999.0,-999.0,44,-99.99,,,-99.99,VWS V14.01,2013-02-25 05:00:00,
2013-02-25 00:01:00,19.4,1.1,28.97,North,-999,-999.0,-999.0,44,-99.99,,,-99.99,VWS V14.01,2013-02-25 05:01:00,
2013-02-25 00:03:00,19.4,1.1,28.97,North,-999,-999.0,-999.0,44,-99.99,,,-99.99,VWS V14.01,2013-02-25 05:03:00,
2013-02-25 00:04:00,19.4,1.1,28.97,North,-999,-999.0,-999.0,44,-99.99,,,-99.99,VWS V14.01,2013-02-25 05:04:00,
2013-02-25 00:09:00,18.7,-0.1,28.97,North,-999,-999.0,-999.0,43,-99.99,,,-99.99,VWS V14.01,2013-02-25 05:09:00,
2013-02-25 00:15:00,18.3,0.1,28.97,North,-999,-999.0,-999.0,44,-99.99,,,-99.99,VWS V14.01,2013-02-25 05:15:00,
2013-02-25 00:21:00,18.1,-0.1,28.97,North,-999,-999.0,-999.0,44,-99.99,,,-99.99,VWS V14.01,2013-02-25 05:21:00,
2013-02-25 00:26:00,17.8,-0.4,28.97,North,-999,-999.0,-999.0,44,-99.99,,,-99.99,VWS V14.01,2013-02-25 05:26:00,
2013-02-25 00:31:00,17.6,-0.6,28.97,North,-999,-999.0,-999.0,44,-99.99,,,-99.99,VWS V14.01,2013-02-25 05:31:00,
2013-02-25 00:37:00,17.4,-0.8,28.97,North,-999,-999.0,-999.0,44,-99.99,,,-99.99,VWS V14.01,2013-02-25 05:37:00,
2013-02-25 00:43:00,17.1,-1.1,28.97,North,-999,-999.0,-999.0,44,-99.99,,,-99.99,VWS V14.01,2013-02-25 05:43:00,
2013-02-25 00:48:00,17.2,-0.9,28.97,North,-999,-999.0,-999.0,44,-99.99,,,-99.99,VWS V14.01,2013-02-25 05:48:00,
2013-02-25 00:53:00,17.1,-1.1,28.97,North,-999,-999.0,-999.0,44,-99.99,,,-99.99,VWS V14.01,2013-02-25 05:53:00,
2013-02-25 00:58:00,17.4,-0.3,28.97,North,-999,-999.0,-999.0,45,-99.99,,,-99.99,VWS V14.01,2013-02-25 05:58:00,
2013-02-25 01:04:00,17.1,-0.6,28.97,North,-999,-999.0,-999.0,45,-99.99,,,-99.99,VWS V14.01,2013-02-25 06:04:00,
2013-02-25 01:09:00,18.0,0.2,28.97,North,-999,-999.0,-999.0,45,-99.99,,,-99.99,VWS V14.01,2013-02-25 06:09:00,
2013-02-25 01:15:00,18.1,0.4,28.97,North,-999,-999.0,-999.0,45,-99.99,,,-99.99,VWS V14.01,2013-02-25 06:15:00,
2013-02-25 01:20:00,18.3,0.6,28.97,North,-999,-999.0,-999.0,45,-99.99,,,-99.99,VWS V14.01,2013-02-25 06:20:00,
2013-02-25 01:25:00,18.5,1.2,28.97,North,-999,-999.0,-999.0,46,-99.99,,,-99.99,VWS V14.01,2013-02-25 06:25:00,
2013-02-25 01:31:00,18.7,1.4,28.97,North,-999,-999.0,-999.0,46,-99.99,,,-99.99,VWS V14.01,2013-02-25 06:31:00,
2013-02-25 01:37:00,18.3,1.0,28.97,North,-999,-999.0,-999.0,46,-99.99,,,-99.99,VWS V14.01,2013-02-25 06:37:00,
2013-02-25 01:42:00,17.8,0.1,28.97,North,-999,-999.0,-999.0,45,-99.99,,,-99.99,VWS V14.01,2013-02-25 06:42:00,
2013-02-25 01:48:00,17.8,0.5,28.97,North,-999,-999.0,-999.0,46,-99.99,,,-99.99,VWS V14.01,2013-02-25 06:48:00,
2013-02-25 01:53:00,17.8,0.5,28.97,North,-999,-999.0,-999.0,46,-99.99,,,-99.99,VWS V14.01,2013-02-25 06:53:00,
2013-02-25 01:58:00,18.1,0.9,28.97,North,-999,-999.0,-999.0,46,-99.99,,,-99.99,VWS V14.01,2013-02-25 06:58:00,
2013-02-25 02:03:00,18.1,0.9,29.00,North,-999,-999.0,-999.0,46,-99.99,,,-99.99,VWS V14.01,2013-02-25 07:03:00,
2013-02-25 02:08:00,17.1,-0.1,29.00,North,-999,-999.0,-999.0,46,-99.99,,,-99.99,VWS V14.01,2013-02-25 07:08:00,
2013-02-25 02:13:00,16.5,-0.6,29.00,North,-999,-999.0,-999.0,46,-99.99,,,-99.99,VWS V14.01,2013-02-25 07:13:00,
2013-02-25 02:19:00,16.0,-1.1,29.00,North,-999,-999.0,-999.0,46,-99.99,,,-99.99,VWS V14.01,2013-02-25 07:19:00,
2013-02-25 02:25:00,16.0,-1.1,29.00,North,-999,-999.0,-999.0,46,-99.99,,,-99.99,VWS V14.01,2013-02-25 07:25:00,
2013-02-25 02:30:00,15.6,-1.0,29.00,North,-999,-999.0,-999.0,47,-99.99,,,-99.99,VWS V14.01,2013-02-25 07:30:00,
2013-02-25 02:35:00,15.6,-1.0,29.00,North,-999,-999.0,-999.0,47,-99.99,,,-99.99,VWS V14.01,2013-02-25 07:35:00,
2013-02-25 02:40:00,15.6,-1.0,29.00,North,-999,-999.0,-999.0,47,-99.99,,,-99.99,VWS V14.01,2013-02-25 07:40:00,
2013-02-25 02:46:00,15.8,-0.4,29.00,North,-999,-999.0,-999.0,48,-99.99,,,-99.99,VWS V14.01,2013-02-25 07:46:00,
2013-02-25 02:52:00,15.8,-0.4,29.00,North,-999,-999.0,-999.0,48,-99.99,,,-99.99,VWS V14.01,2013-02-25 07:52:00,
2013-02-25 02:57:00,15.4,-0.7,29.00,North,-999,-999.0,-999.0,48,-99.99,,,-99.99,VWS V14.01,2013-02-25 07:57:00,
2013-02-25 03:02:00,15.4,-0.7,28.97,North,-999,-999.0,-999.0,48,-99.99,,,-99.99,VWS V14.01,2013-02-25 08:02:00,
2013-02-25 03:08:00,15.4,-0.7,28.97,North,-999,-999.0,-999.0,48,-99.99,,,-99.99,VWS V14.01,2013-02-25 08:08:00,
2013-02-25 03:13:00,15.4,-0.7,28.97,North,-999,-999.0,-999.0,48,-99.99,,,-99.99,VWS V14.01,2013-02-25 08:13:00,
2013-02-25 03:19:00,15.3,-0.9,28.97,North,-999,-999.0,-999.0,48,-99.99,,,-99.99,VWS V14.01,2013-02-25 08:19:00,
2013-02-25 03:24:00,15.3,-0.9,28.97,North,-999,-999.0,-999.0,48,-99.99,,,-99.99,VWS V14.01,2013-02-25 08:24:00,
2013-02-25 03:30:00,15.1,-1.1,28.97,North,-999,-999.0,-999.0,48,-99.99,,,-99.99,VWS V14.01,2013-02-25 08:30:00,
2013-02-25 03:35:00,14.7,-1.4,28.97,North,-999,-999.0,-999.0,48,-99.99,,,-99.99,VWS V14.01,2013-02-25 08:35:00,
2013-02-25 03:40:00,14.9,-0.8,28.97,North,-999,-999.0,-999.0,49,-99.99,,,-99.99,VWS V14.01,2013-02-25 08:40:00,
2013-02-25 03:45:00,14.9,-0.8,28.97,North,-999,-999.0,-999.0,49,-99.99,,,-99.99,VWS V14.01,2013-02-25 08:45:00,
2013-02-25 03:50:00,14.9,-0.8,28.97,North,-999,-999.0,-999.0,49,-99.99,,,-99.99,VWS V14.01,2013-02-25 08:50:00,
2013-02-25 03:56:00,14.9,-0.8,28.97,North,-999,-999.0,-999.0,49,-99.99,,,-99.99,VWS V14.01,2013-02-25 08:56:00,
2013-02-25 04:02:00,15.1,-0.6,28.97,North,-999,-999.0,-999.0,49,-99.99,,,-99.99,VWS V14.01,2013-02-25 09:02:00,
2013-02-25 04:07:00,15.3,-0.5,28.97,North,-999,-999.0,-999.0,49,-99.99,,,-99.99,VWS V14.01,2013-02-25 09:07:00,
2013-02-25 04:13:00,14.9,-0.8,28.97,North,-999,-999.0,-999.0,49,-99.99,,,-99.99,VWS V14.01,2013-02-25 09:13:00,
2013-02-25 04:18:00,15.1,-0.6,28.97,North,-999,-999.0,-999.0,49,-99.99,,,-99.99,VWS V14.01,2013-02-25 09:18:00,
2013-02-25 04:23:00,15.3,0.0,28.97,North,-999,-999.0,-999.0,50,-99.99,,,-99.99,VWS V14.01,2013-02-25 09:23:00,
2013-02-25 04:29:00,15.6,0.3,28.97,North,-999,-999.0,-999.0,50,-99.99,,,-99.99,VWS V14.01,2013-02-25 09:29:00,
2013-02-25 04:34:00,15.4,0.1,28.97,North,-999,-999.0,-999.0,50,-99.99,,,-99.99,VWS V14.01,2013-02-25 09:34:00,
2013-02-25 04:40:00,15.6,0.3,28.97,North,-999,-999.0,-999.0,50,-99.99,,,-99.99,VWS V14.01,2013-02-25 09:40:00,
2013-02-25 04:45:00,16.0,0.6,28.97,North,-999,-999.0,-999.0,50,-99.99,,,-99.99,VWS V14.01,2013-02-25 09:45:00,
2013-02-25 04:51:00,15.4,-0.3,28.97,North,-999,-999.0,-999.0,49,-99.99,,,-99.99,VWS V14.01,2013-02-25 09:51:00,
2013-02-25 04:56:00,15.4,0.1,28.97,North,-999,-999.0,-999.0,50,-99.99,,,-99.99,VWS V14.01,2013-02-25 09:56:00,
2013-02-25 05:02:00,15.1,-0.2,29.00,North,-999,-999.0,-999.0,50,-99.99,,,-99.99,VWS V14.01,2013-02-25 10:02:00,
2013-02-25 05:08:00,14.9,-0.8,29.00,North,-999,-999.0,-999.0,49,-99.99,,,-99.99,VWS V14.01,2013-02-25 10:08:00,
2013-02-25 05:13:00,14.4,-1.3,29.00,North,-999,-999.0,-999.0,49,-99.99,,,-99.99,VWS V14.01,2013-02-25 10:13:00,
2013-02-25 05:19:00,14.2,-1.5,28.97,North,-999,-999.0,-999.0,49,-99.99,,,-99.99,VWS V14.01,2013-02-25 10:19:00,
2013-02-25 05:24:00,14.0,-1.2,28.97,North,-999,-999.0,-999.0,50,-99.99,,,-99.99,VWS V14.01,2013-02-25 10:24:00,
2013-02-25 05:29:00,13.8,-1.4,28.97,North,-999,-999.0,-999.0,50,-99.99,,,-99.99,VWS V14.01,2013-02-25 10:29:00,
2013-02-25 05:35:00,13.6,-1.5,28.97,North,-999,-999.0,-999.0,50,-99.99,,,-99.99,VWS V14.01,2013-02-25 10:35:00,
2013-02-25 05:40:00,13.6,-1.5,28.97,North,-999,-999.0,-999.0,50,-99.99,,,-99.99,VWS V14.01,2013-02-25 10:40:00,
2013-02-25 05:45:00,13.6,-1.5,28.97,North,-999,-999.0,-999.0,50,-99.99,,,-99.99,VWS V14.01,2013-02-25 10:45:00,
2013-02-25 05:50:00,13.6,-1.5,28.97,North,-999,-999.0,-999.0,50,-99.99,,,-99.99,VWS V14.01,2013-02-25 10:50:00,
2013-02-25 05:56:00,13.5,-1.7,28.97,North,-999,-999.0,-999.0,50,-99.99,,,-99.99,VWS V14.01,2013-02-25 10:56:00,
2013-02-25 06:02:00,13.6,-1.5,28.97,North,-999,-999.0,-999.0,50,-99.99,,,-99.99,VWS V14.01,2013-02-25 11:02:00,
2013-02-25 06:07:00,13.6,-1.5,28.97,North,-999,-999.0,-999.0,50,-99.99,,,-99.99,VWS V14.01,2013-02-25 11:07:00,
2013-02-25 06:12:00,13.8,-1.4,28.97,North,-999,-999.0,-999.0,50,-99.99,,,-99.99,VWS V14.01,2013-02-25 11:12:00,
2013-02-25 06:17:00,14.2,-1.0,29.00,North,-999,-999.0,-999.0,50,-99.99,,,-99.99,VWS V14.01,2013-02-25 11:17:00,
2013-02-25 06:23:00,14.4,-0.9,29.00,North,-999,-999.0,-999.0,50,-99.99,,,-99.99,VWS V14.01,2013-02-25 11:23:00,
2013-02-25 06:28:00,14.7,-0.1,29.00,North,-999,-999.0,-999.0,51,-99.99,,,-99.99,VWS V14.01,2013-02-25 11:28:00,
2013-02-25 06:33:00,14.9,0.1,29.00,North,-999,-999.0,-999.0,51,-99.99,,,-99.99,VWS V14.01,2013-02-25 11:33:00,
2013-02-25 06:38:00,14.7,-0.5,29.00,North,-999,-999.0,-999.0,50,-99.99,,,-99.99,VWS V14.01,2013-02-25 11:38:00,
2013-02-25 06:43:00,14.7,-0.5,29.00,North,-999,-999.0,-999.0,50,-99.99,,,-99.99,VWS V14.01,2013-02-25 11:43:00,
2013-02-25 06:48:00,14.9,-0.4,29.00,North,-999,-999.0,-999.0,50,-99.99,,,-99.99,VWS V14.01,2013-02-25 11:48:00,
2013-02-25 06:53:00,15.1,0.2,29.00,North,-999,-999.0,-999.0,51,-99.99,,,-99.99,VWS V14.01,2013-02-25 11:53:00,
2013-02-25 06:59:00,15.3,0.4,29.00,North,-999,-999.0,-999.0,51,-99.99,,,-99.99,VWS V14.01,2013-02-25 11:59:00,
2013-02-25 07:04:00,15.1,0.2,29.00,North,-999,-999.0,-999.0,51,-99.99,,,-99.99,VWS V14.01,2013-02-25 12:04:00,
2013-02-25 07:10:00,14.4,-0.9,29.00,North,-999,-999.0,-999.0,50,-99.99,,,-99.99,VWS V14.01,2013-02-25 12:10:00,
2013-02-25 07:15:00,14.0,-1.2,29.00,North,-999,-999.0,-999.0,50,-99.99,,,-99.99,VWS V14.01,2013-02-25 12:15:00,
2013-02-25 07:20:00,13.8,-1.4,29.03,North,-999,-999.0,-999.0,50,-99.99,,,-99.99,VWS V14.01,2013-02-25 12:20:00,
2013-02-25 07:25:00,13.6,-1.5,29.03,North,-999,-999.0,-999.0,50,-99.99,,,-99.99,VWS V14.01,2013-02-25 12:25:00,
2013-02-25 07:31:00,13.8,-1.4,29.03,North,-999,-999.0,-999.0,50,-99.99,,,-99.99,VWS V14.01,2013-02-25 12:31:00,
2013-02-25 07:36:00,14.0,-0.8,29.03,North,-999,-999.0,-999.0,51,-99.99,,,-99.99,VWS V14.01,2013-02-25 12:36:00,
2013-02-25 07:42:00,14.4,-0.9,29.03,North,-999,-999.0,-999.0,50,-99.99,,,-99.99,VWS V14.01,2013-02-25 12:42:00,
2013-02-25 07:48:00,14.9,0.1,29.03,North,-999,-999.0,-999.0,51,-99.99,,,-99.99,VWS V14.01,2013-02-25 12:48:00,
2013-02-25 07:53:00,15.6,0.7,29.03,North,-999,-999.0,-999.0,51,-99.99,,,-99.99,VWS V14.01,2013-02-25 12:53:00,
2013-02-25 07:58:00,16.2,1.2,29.03,North,-999,-999.0,-999.0,51,-99.99,,,-99.99,VWS V14.01,2013-02-25 12:58:00,
2013-02-25 08:03:00,16.9,2.3,29.03,North,-999,-999.0,-999.0,52,-99.99,,,-99.99,VWS V14.01,2013-02-25 13:03:00,
2013-02-25 08:09:00,17.8,3.2,29.03,North,-999,-999.0,-999.0,52,-99.99,,,-99.99,VWS V14.01,2013-02-25 13:09:00,
2013-02-25 08:15:00,18.7,4.0,29.03,North,-999,-999.0,-999.0,52,-99.99,,,-99.99,VWS V14.01,2013-02-25 13:15:00,
2013-02-25 08:20:00,19.2,4.5,29.03,North,-999,-999.0,-999.0,52,-99.99,,,-99.99,VWS V14.01,2013-02-25 13:20:00,
2013-02-25 08:25:00,19.9,5.2,29.03,North,-999,-999.0,-999.0,52,-99.99,,,-99.99,VWS V14.01,2013-02-25 13:25:00,
2013-02-25 08:30:00,20.3,5.9,29.03,North,-999,-999.0,-999.0,53,-99.99,,,-99.99,VWS V14.01,2013-02-25 13:30:00,
2013-02-25 08:36:00,21.0,6.6,29.03,North,-999,-999.0,-999.0,53,-99.99,,,-99.99,VWS V14.01,2013-02-25 13:36:00,
2013-02-25 08:42:00,21.6,6.7,29.03,North,-999,-999.0,-999.0,52,-99.99,,,-99.99,VWS V14.01,2013-02-25 13:42:00,
2013-02-25 08:47:00,22.1,7.6,29.03,North,-999,-999.0,-999.0,53,-99.99,,,-99.99,VWS V14.01,2013-02-25 13:47:00,
2013-02-25 08:53:00,22.8,8.3,29.03,North,-999,-999.0,-999.0,53,-99.99,,,-99.99,VWS V14.01,2013-02-25 13:53:00,
2013-02-25 08:58:00,23.4,8.4,29.03,North,-999,-999.0,-999.0,52,-99.99,,,-99.99,VWS V14.01,2013-02-25 13:58:00,
2013-02-25 09:04:00,23.9,9.3,29.03,North,-999,-999.0,-999.0,53,-99.99,,,-99.99,VWS V14.01,2013-02-25 14:04:00,
2013-02-25 09:09:00,24.6,9.9,29.03,North,-999,-999.0,-999.0,53,-99.99,,,-99.99,VWS V14.01,2013-02-25 14:09:00,
2013-02-25 09:14:00,25.2,10.4,29.03,North,-999,-999.0,-999.0,53,-99.99,,,-99.99,VWS V14.01,2013-02-25 14:14:00,
2013-02-25 09:19:00,25.7,10.9,29.03,North,-999,-999.0,-999.0,53,-99.99,,,-99.99,VWS V14.01,2013-02-25 14:19:00,
2013-02-25 09:25:00,26.6,11.8,29.03,North,-999,-999.0,-999.0,53,-99.99,,,-99.99,VWS V14.01,2013-02-25 14:25:00,
2013-02-25 09:30:00,27.3,12.5,29.03,North,-999,-999.0,-999.0,53,-99.99,,,-99.99,VWS V14.01,2013-02-25 14:30:00,
2013-02-25 09:36:00,28.2,13.3,29.03,North,-999,-999.0,-999.0,53,-99.99,,,-99.99,VWS V14.01,2013-02-25 14:36:00,
2013-02-25 09:41:00,28.6,13.6,29.03,North,-999,-999.0,-999.0,53,-99.99,,,-99.99,VWS V14.01,2013-02-25 14:41:00,
2013-02-25 09:46:00,28.8,13.8,29.03,North,-999,-999.0,-999.0,53,-99.99,,,-99.99,VWS V14.01,2013-02-25 14:46:00,
2013-02-25 09:52:00,29.5,14.0,29.03,North,-999,-999.0,-999.0,52,-99.99,,,-99.99,VWS V14.01,2013-02-25 14:52:00,
2013-02-25 09:58:00,30.7,15.2,29.03,North,-999,-999.0,-999.0,52,-99.99,,,-99.99,VWS V14.01,2013-02-25 14:58:00,
2013-02-25 10:04:00,31.6,16.0,29.03,North,-999,-999.0,-999.0,52,-99.99,,,-99.99,VWS V14.01,2013-02-25 15:04:00,
2013-02-25 10:10:00,31.1,13.2,29.03,North,-999,-999.0,-999.0,47,-99.99,,,-99.99,VWS V14.01,2013-02-25 15:10:00,
2013-02-25 10:16:00,31.5,12.1,29.03,North,-999,-999.0,-999.0,44,-99.99,,,-99.99,VWS V14.01,2013-02-25 15:16:00,
2013-02-25 10:22:00,31.3,5.5,29.03,North,-999,-999.0,-999.0,33,-99.99,,,-99.99,VWS V14.01,2013-02-25 15:22:00,
2013-02-25 10:27:00,31.8,4.6,29.03,North,-999,-999.0,-999.0,31,-99.99,,,-99.99,VWS V14.01,2013-02-25 15:27:00,
2013-02-25 10:33:00,32.0,2.6,29.03,North,-999,-999.0,-999.0,28,-99.99,,,-99.99,VWS V14.01,2013-02-25 15:33:00,
2013-02-25 10:38:00,32.2,-1.4,29.03,North,-999,-999.0,-999.0,23,-99.99,,,-99.99,VWS V14.01,2013-02-25 15:38:00,
2013-02-25 10:43:00,32.2,-1.4,29.03,North,-999,-999.0,-999.0,23,-99.99,,,-99.99,VWS V14.01,2013-02-25 15:43:00,
2013-02-25 10:48:00,32.2,-1.4,29.03,North,-999,-999.0,-999.0,23,-99.99,,,-99.99,VWS V14.01,2013-02-25 15:48:00,
2013-02-25 10:54:00,32.5,-4.1,29.03,North,-999,-999.0,-999.0,20,-99.99,,,-99.99,VWS V14.01,2013-02-25 15:54:00,
2013-02-25 11:00:00,32.7,-3.9,29.03,North,-999,-999.0,-999.0,20,-99.99,,,-99.99,VWS V14.01,2013-02-25 16:00:00,
2013-02-25 11:05:00,32.7,-3.9,29.03,North,-999,-999.0,-999.0,20,-99.99,,,-99.99,VWS V14.01,2013-02-25 16:05:00,
2013-02-25 11:10:00,32.7,-6.1,29.03,North,-999,-999.0,-999.0,18,-99.99,,,-99.99,VWS V14.01,2013-02-25 16:10:00,
2013-02-25 11:16:00,33.1,-3.6,29.03,North,-999,-999.0,-999.0,20,-99.99,,,-99.99,VWS V14.01,2013-02-25 16:16:00,
2013-02-25 11:21:00,33.4,-5.5,29.03,North,-999,-999.0,-999.0,18,-99.99,,,-99.99,VWS V14.01,2013-02-25 16:21:00,
2013-02-25 11:27:00,33.8,-6.4,29.03,North,-999,-999.0,-999.0,17,-99.99,,,-99.99,VWS V14.01,2013-02-25 16:27:00,
2013-02-25 11:32:00,34.0,-6.2,29.03,North,-999,-999.0,-999.0,17,-99.99,,,-99.99,VWS V14.01,2013-02-25 16:32:00,
2013-02-25 11:38:00,34.2,-6.1,29.03,North,-999,-999.0,-999.0,17,-99.99,,,-99.99,VWS V14.01,2013-02-25 16:38:00,
2013-02-25 11:44:00,34.5,-5.8,29.03,North,-999,-999.0,-999.0,17,-99.99,,,-99.99,VWS V14.01,2013-02-25 16:44:00,
2013-02-25 11:49:00,35.1,-5.3,29.03,North,-999,-999.0,-999.0,17,-99.99,,,-99.99,VWS V14.01,2013-02-25 16:49:00,
2013-02-25 11:54:00,36.0,-4.6,29.03,North,-999,-999.0,-999.0,17,-99.99,,,-99.99,VWS V14.01,2013-02-25 16:54:00,
2013-02-25 11:59:00,36.3,-4.3,29.03,North,-999,-999.0,-999.0,17,-99.99,,,-99.99,VWS V14.01,2013-02-25 16:59:00,
2013-02-25 12:05:00,36.9,-3.9,29.03,North,-999,-999.0,-999.0,17,-99.99,,,-99.99,VWS V14.01,2013-02-25 17:05:00,
2013-02-25 12:10:00,37.0,-3.7,29.03,North,-999,-999.0,-999.0,17,-99.99,,,-99.99,VWS V14.01,2013-02-25 17:10:00,
2013-02-25 12:16:00,37.2,-3.6,29.03,North,-999,-999.0,-999.0,17,-99.99,,,-99.99,VWS V14.01,2013-02-25 17:16:00,
2013-02-25 12:21:00,37.2,-3.6,29.03,North,-999,-999.0,-999.0,17,-99.99,,,-99.99,VWS V14.01,2013-02-25 17:21:00,
2013-02-25 12:26:00,37.8,-4.4,29.03,North,-999,-999.0,-999.0,16,-99.99,,,-99.99,VWS V14.01,2013-02-25 17:26:00,
2013-02-25 12:32:00,38.5,-3.8,29.03,North,-999,-999.0,-999.0,16,-99.99,,,-99.99,VWS V14.01,2013-02-25 17:32:00,
2013-02-25 12:38:00,37.9,-4.2,29.03,North,-999,-999.0,-999.0,16,-99.99,,,-99.99,VWS V14.01,2013-02-25 17:38:00,
2013-02-25 12:43:00,37.9,-4.2,29.03,North,-999,-999.0,-999.0,16,-99.99,,,-99.99,VWS V14.01,2013-02-25 17:43:00,
2013-02-25 12:48:00,37.8,-4.4,29.03,North,-999,-999.0,-999.0,16,-99.99,,,-99.99,VWS V14.01,2013-02-25 17:48:00,
2013-02-25 12:53:00,37.8,-4.4,29.03,North,-999,-999.0,-999.0,16,-99.99,,,-99.99,VWS V14.01,2013-02-25 17:53:00,
2013-02-25 12:59:00,37.8,-4.4,29.03,North,-999,-999.0,-999.0,16,-99.99,,,-99.99,VWS V14.01,2013-02-25 17:59:00,
2013-02-25 13:04:00,37.4,-4.7,29.00,North,-999,-999.0,-999.0,16,-99.99,,,-99.99,VWS V14.01,2013-02-25 18:04:00,
2013-02-25 13:10:00,37.0,-3.7,29.00,North,-999,-999.0,-999.0,17,-99.99,,,-99.99,VWS V14.01,2013-02-25 18:10:00,
2013-02-25 13:15:00,37.4,-4.7,29.00,North,-999,-999.0,-999.0,16,-99.99,,,-99.99,VWS V14.01,2013-02-25 18:15:00,
2013-02-25 13:20:00,37.6,-4.5,29.00,North,-999,-999.0,-999.0,16,-99.99,,,-99.99,VWS V14.01,2013-02-25 18:20:00,
2013-02-25 13:26:00,37.6,-4.5,29.00,North,-999,-999.0,-999.0,16,-99.99,,,-99.99,VWS V14.01,2013-02-25 18:26:00,
2013-02-25 13:32:00,37.9,-4.2,29.00,North,-999,-999.0,-999.0,16,-99.99,,,-99.99,VWS V14.01,2013-02-25 18:32:00,
2013-02-25 13:37:00,37.9,-4.2,29.00,North,-999,-999.0,-999.0,16,-99.99,,,-99.99,VWS V14.01,2013-02-25 18:37:00,
2013-02-25 13:42:00,37.8,-4.4,29.00,North,-999,-999.0,-999.0,16,-99.99,,,-99.99,VWS V14.01,2013-02-25 18:42:00,
2013-02-25 13:47:00,37.4,-4.7,29.00,North,-999,-999.0,-999.0,16,-99.99,,,-99.99,VWS V14.01,2013-02-25 18:47:00,
2013-02-25 13:53:00,37.0,-3.7,29.00,North,-999,-999.0,-999.0,17,-99.99,,,-99.99,VWS V14.01,2013-02-25 18:53:00,
2013-02-25 13:59:00,37.0,-3.7,29.00,North,-999,-999.0,-999.0,17,-99.99,,,-99.99,VWS V14.01,2013-02-25 18:59:00,
2013-02-25 14:04:00,37.6,-4.5,28.97,North,-999,-999.0,-999.0,16,-99.99,,,-99.99,VWS V14.01,2013-02-25 19:04:00,
2013-02-25 14:10:00,37.8,-4.4,28.97,North,-999,-999.0,-999.0,16,-99.99,,,-99.99,VWS V14.01,2013-02-25 19:10:00,
2013-02-25 14:16:00,37.9,-4.2,28.97,North,-999,-999.0,-999.0,16,-99.99,,,-99.99,VWS V14.01,2013-02-25 19:16:00,
2013-02-25 14:21:00,37.9,-4.2,28.97,North,-999,-999.0,-999.0,16,-99.99,,,-99.99,VWS V14.01,2013-02-25 19:21:00,
2013-02-25 14:26:00,37.9,-4.2,28.97,North,-999,-999.0,-999.0,16,-99.99,,,-99.99,VWS V14.01,2013-02-25 19:26:00,
2013-02-25 14:32:00,38.1,-4.1,28.97,North,-999,-999.0,-999.0,16,-99.99,,,-99.99,VWS V14.01,2013-02-25 19:32:00,
2013-02-25 14:37:00,38.1,-4.1,28.97,North,-999,-999.0,-999.0,16,-99.99,,,-99.99,VWS V14.01,2013-02-25 19:37:00,
2013-02-25 14:43:00,37.9,-4.2,28.97,North,-999,-999.0,-999.0,16,-99.99,,,-99.99,VWS V14.01,2013-02-25 19:43:00,
2013-02-25 14:48:00,38.1,-4.1,28.97,North,-999,-999.0,-999.0,16,-99.99,,,-99.99,VWS V14.01,2013-02-25 19:48:00,
2013-02-25 14:54:00,38.5,-3.8,28.97,North,-999,-999.0,-999.0,16,-99.99,,,-99.99,VWS V14.01,2013-02-25 19:54:00,
2013-02-25 14:59:00,38.5,-3.8,28.97,North,-999,-999.0,-999.0,16,-99.99,,,-99.99,VWS V14.01,2013-02-25 19:59:00,
2013-02-25 15:04:00,38.5,-3.8,28.97,North,-999,-999.0,-999.0,16,-99.99,,,-99.99,VWS V14.01,2013-02-25 20:04:00,
2013-02-25 15:10:00,38.5,-3.8,28.97,North,-999,-999.0,-999.0,16,-99.99,,,-99.99,VWS V14.01,2013-02-25 20:10:00,
2013-02-25 15:15:00,38.5,-3.8,28.97,North,-999,-999.0,-999.0,16,-99.99,,,-99.99,VWS V14.01,2013-02-25 20:15:00,
2013-02-25 15:21:00,38.5,-3.8,28.97,North,-999,-999.0,-999.0,16,-99.99,,,-99.99,VWS V14.01,2013-02-25 20:21:00,
2013-02-25 15:26:00,38.5,-3.8,28.97,North,-999,-999.0,-999.0,16,-99.99,,,-99.99,VWS V14.01,2013-02-25 20:26:00,
2013-02-25 15:31:00,38.5,-3.8,28.97,North,-999,-999.0,-999.0,16,-99.99,,,-99.99,VWS V14.01,2013-02-25 20:31:00,
2013-02-25 15:36:00,38.3,-4.0,28.97,North,-999,-999.0,-999.0,16,-99.99,,,-99.99,VWS V14.01,2013-02-25 20:36:00,
2013-02-25 15:41:00,38.5,-3.8,28.97,North,-999,-999.0,-999.0,16,-99.99,,,-99.99,VWS V14.01,2013-02-25 20:41:00,
2013-02-25 15:47:00,38.7,-3.7,28.97,North,-999,-999.0,-999.0,16,-99.99,,,-99.99,VWS V14.01,2013-02-25 20:47:00,
2013-02-25 15:52:00,38.5,-3.8,28.97,North,-999,-999.0,-999.0,16,-99.99,,,-99.99,VWS V14.01,2013-02-25 20:52:00,
2013-02-25 15:57:00,38.5,-3.8,28.97,North,-999,-999.0,-999.0,16,-99.99,,,-99.99,VWS V14.01,2013-02-25 20:57:00,
2013-02-25 16:03:00,38.7,-3.7,28.97,North,-999,-999.0,-999.0,16,-99.99,,,-99.99,VWS V14.01,2013-02-25 21:03:00,
2013-02-25 16:08:00,38.5,-3.8,28.97,North,-999,-999.0,-999.0,16,-99.99,,,-99.99,VWS V14.01,2013-02-25 21:08:00,
2013-02-25 16:13:00,38.5,-3.8,28.97,North,-999,-999.0,-999.0,16,-99.99,,,-99.99,VWS V14.01,2013-02-25 21:13:00,
2013-02-25 16:18:00,38.5,-3.8,28.97,North,-999,-999.0,-999.0,16,-99.99,,,-99.99,VWS V14.01,2013-02-25 21:18:00,
2013-02-25 16:24:00,38.8,-3.5,28.97,North,-999,-999.0,-999.0,16,-99.99,,,-99.99,VWS V14.01,2013-02-25 21:24:00,
2013-02-25 16:30:00,38.8,-3.5,28.97,North,-999,-999.0,-999.0,16,-99.99,,,-99.99,VWS V14.01,2013-02-25 21:30:00,
2013-02-25 16:35:00,38.8,-3.5,28.97,North,-999,-999.0,-999.0,16,-99.99,,,-99.99,VWS V14.01,2013-02-25 21:35:00,
2013-02-25 16:41:00,38.7,-3.7,28.97,North,-999,-999.0,-999.0,16,-99.99,,,-99.99,VWS V14.01,2013-02-25 21:41:00,
2013-02-25 16:46:00,38.5,-3.8,28.97,North,-999,-999.0,-999.0,16,-99.99,,,-99.99,VWS V14.01,2013-02-25 21:46:00,
2013-02-25 16:51:00,38.7,-3.7,28.97,North,-999,-999.0,-999.0,16,-99.99,,,-99.99,VWS V14.01,2013-02-25 21:51:00,
2013-02-25 16:57:00,38.5,-3.8,28.97,North,-999,-999.0,-999.0,16,-99.99,,,-99.99,VWS V14.01,2013-02-25 21:57:00,
2013-02-25 17:02:00,38.3,-4.0,28.97,North,-999,-999.0,-999.0,16,-99.99,,,-99.99,VWS V14.01,2013-02-25 22:02:00,
2013-02-25 17:08:00,37.9,-4.2,28.97,North,-999,-999.0,-999.0,16,-99.99,,,-99.99,VWS V14.01,2013-02-25 22:08:00,
2013-02-25 17:14:00,37.8,-4.4,28.97,North,-999,-999.0,-999.0,16,-99.99,,,-99.99,VWS V14.01,2013-02-25 22:14:00,
2013-02-25 17:20:00,37.6,-4.5,28.97,North,-999,-999.0,-999.0,16,-99.99,,,-99.99,VWS V14.01,2013-02-25 22:20:00,
2013-02-25 17:26:00,37.4,-4.7,28.97,North,-999,-999.0,-999.0,16,-99.99,,,-99.99,VWS V14.01,2013-02-25 22:26:00,
2013-02-25 17:31:00,37.0,-3.7,28.97,North,-999,-999.0,-999.0,17,-99.99,,,-99.99,VWS V14.01,2013-02-25 22:31:00,
2013-02-25 17:36:00,37.0,-3.7,28.97,North,-999,-999.0,-999.0,17,-99.99,,,-99.99,VWS V14.01,2013-02-25 22:36:00,
2013-02-25 17:42:00,38.3,-4.0,28.97,North,-999,-999.0,-999.0,16,-99.99,,,-99.99,VWS V14.01,2013-02-25 22:42:00,
2013-02-25 17:47:00,37.4,-4.7,28.94,North,-999,-999.0,-999.0,16,-99.99,,,-99.99,VWS V14.01,2013-02-25 22:47:00,
2013-02-25 17:53:00,36.5,-4.2,28.94,North,-999,-999.0,-999.0,17,-99.99,,,-99.99,VWS V14.01,2013-02-25 22:53:00,
2013-02-25 17:59:00,36.0,-4.6,28.94,North,-999,-999.0,-999.0,17,-99.99,,,-99.99,VWS V14.01,2013-02-25 22:59:00,
2013-02-25 18:05:00,35.4,-5.1,28.97,North,-999,-999.0,-999.0,17,-99.99,,,-99.99,VWS V14.01,2013-02-25 23:05:00,
2013-02-25 18:10:00,35.1,-5.3,28.97,North,-999,-999.0,-999.0,17,-99.99,,,-99.99,VWS V14.01,2013-02-25 23:10:00,
2013-02-25 18:15:00,34.9,-5.5,28.97,North,-999,-999.0,-999.0,17,-99.99,,,-99.99,VWS V14.01,2013-02-25 23:15:00,
2013-02-25 18:21:00,34.3,-5.9,28.97,North,-999,-999.0,-999.0,17,-99.99,,,-99.99,VWS V14.01,2013-02-25 23:21:00,
2013-02-25 18:26:00,34.2,-6.1,28.97,North,-999,-999.0,-999.0,17,-99.99,,,-99.99,VWS V14.01,2013-02-25 23:26:00,
2013-02-25 18:32:00,34.0,-6.2,28.97,North,-999,-999.0,-999.0,17,-99.99,,,-99.99,VWS V14.01,2013-02-25 23:32:00,
2013-02-25 18:38:00,33.6,-5.3,28.97,North,-999,-999.0,-999.0,18,-99.99,,,-99.99,VWS V14.01,2013-02-25 23:38:00,
2013-02-25 18:44:00,33.3,-5.7,28.97,North,-999,-999.0,-999.0,18,-99.99,,,-99.99,VWS V14.01,2013-02-25 23:44:00,
2013-02-25 18:49:00,33.1,-5.8,28.97,North,-999,-999.0,-999.0,18,-99.99,,,-99.99,VWS V14.01,2013-02-25 23:49:00,
2013-02-25 18:54:00,33.1,-5.8,28.97,North,-999,-999.0,-999.0,18,-99.99,,,-99.99,VWS V14.01,2013-02-25 23:54:00,
2013-02-25 19:00:00,32.9,-5.9,28.97,North,-999,-999.0,-999.0,18,-99.99,,,-99.99,VWS V14.01,2013-02-26 00:00:00,
2013-02-25 19:06:00,32.7,-6.1,28.97,North,-999,-999.0,-999.0,18,-99.99,,,-99.99,VWS V14.01,2013-02-26 00:06:00,
2013-02-25 19:11:00,32.5,-6.2,28.97,North,-999,-999.0,-999.0,18,-99.99,,,-99.99,VWS V14.01,2013-02-26 00:11:00,
2013-02-25 19:16:00,32.4,-4.2,28.97,North,-999,-999.0,-999.0,20,-99.99,,,-99.99,VWS V14.01,2013-02-26 00:16:00,
2013-02-25 19:21:00,32.2,-4.4,28.97,North,-999,-999.0,-999.0,20,-99.99,,,-99.99,VWS V14.01,2013-02-26 00:21:00,
2013-02-25 19:26:00,32.2,-4.4,28.97,North,-999,-999.0,-999.0,20,-99.99,,,-99.99,VWS V14.01,2013-02-26 00:26:00,
2013-02-25 19:31:00,32.0,-4.5,28.97,North,-999,-999.0,-999.0,20,-99.99,,,-99.99,VWS V14.01,2013-02-26 00:31:00,
2013-02-25 19:36:00,31.6,-1.9,28.97,North,-999,-999.0,-999.0,23,-99.99,,,-99.99,VWS V14.01,2013-02-26 00:36:00,
2013-02-25 19:42:00,31.5,-2.0,28.97,North,-999,-999.0,-999.0,23,-99.99,,,-99.99,VWS V14.01,2013-02-26 00:42:00,
2013-02-25 19:47:00,31.3,-0.4,28.97,North,-999,-999.0,-999.0,25,-99.99,,,-99.99,VWS V14.01,2013-02-26 00:47:00,
2013-02-25 19:53:00,31.1,-0.6,28.97,North,-999,-999.0,-999.0,25,-99.99,,,-99.99,VWS V14.01,2013-02-26 00:53:00,
2013-02-25 19:58:00,30.9,1.7,28.97,North,-999,-999.0,-999.0,28,-99.99,,,-99.99,VWS V14.01,2013-02-26 00:58:00,
2013-02-25 20:03:00,30.7,1.5,29.00,North,-999,-999.0,-999.0,28,-99.99,,,-99.99,VWS V14.01,2013-02-26 01:03:00,
2013-02-25 20:09:00,30.6,2.8,29.00,North,-999,-999.0,-999.0,30,-99.99,,,-99.99,VWS V14.01,2013-02-26 01:09:00,
2013-02-25 20:14:00,30.6,3.5,29.00,North,-999,-999.0,-999.0,31,-99.99,,,-99.99,VWS V14.01,2013-02-26 01:14:00,
2013-02-25 20:20:00,30.4,3.4,29.00,North,-999,-999.0,-999.0,31,-99.99,,,-99.99,VWS V14.01,2013-02-26 01:20:00,
2013-02-25 20:26:00,30.2,3.9,29.00,North,-999,-999.0,-999.0,32,-99.99,,,-99.99,VWS V14.01,2013-02-26 01:26:00,
2013-02-25 20:31:00,30.2,3.9,28.97,North,-999,-999.0,-999.0,32,-99.99,,,-99.99,VWS V14.01,2013-02-26 01:31:00,
2013-02-25 20:37:00,30.0,3.8,28.97,North,-999,-999.0,-999.0,32,-99.99,,,-99.99,VWS V14.01,2013-02-26 01:37:00,
2013-02-25 20:42:00,29.8,3.6,28.97,North,-999,-999.0,-999.0,32,-99.99,,,-99.99,VWS V14.01,2013-02-26 01:42:00,
2013-02-25 20:47:00,29.7,3.4,28.97,North,-999,-999.0,-999.0,32,-99.99,,,-99.99,VWS V14.01,2013-02-26 01:47:00,
2013-02-25 20:52:00,29.7,3.4,28.97,North,-999,-999.0,-999.0,32,-99.99,,,-99.99,VWS V14.01,2013-02-26 01:52:00,
2013-02-25 20:57:00,29.7,4.1,28.97,North,-999,-999.0,-999.0,33,-99.99,,,-99.99,VWS V14.01,2013-02-26 01:57:00,
2013-02-25 21:03:00,29.5,3.9,28.97,North,-999,-999.0,-999.0,33,-99.99,,,-99.99,VWS V14.01,2013-02-26 02:03:00,
2013-02-25 21:08:00,29.5,3.9,28.97,North,-999,-999.0,-999.0,33,-99.99,,,-99.99,VWS V14.01,2013-02-26 02:08:00,
2013-02-25 21:13:00,29.3,3.8,28.97,North,-999,-999.0,-999.0,33,-99.99,,,-99.99,VWS V14.01,2013-02-26 02:13:00,
2013-02-25 21:19:00,28.9,4.1,28.94,North,-999,-999.0,-999.0,34,-99.99,,,-99.99,VWS V14.01,2013-02-26 02:19:00,
2013-02-25 21:25:00,28.9,4.1,28.94,North,-999,-999.0,-999.0,34,-99.99,,,-99.99,VWS V14.01,2013-02-26 02:25:00,
2013-02-25 21:31:00,28.9,4.1,28.94,North,-999,-999.0,-999.0,34,-99.99,,,-99.99,VWS V14.01,2013-02-26 02:31:00,
2013-02-25 21:36:00,28.8,3.9,28.94,North,-999,-999.0,-999.0,34,-99.99,,,-99.99,VWS V14.01,2013-02-26 02:36:00,
2013-02-25 21:41:00,28.6,3.8,28.94,North,-999,-999.0,-999.0,34,-99.99,,,-99.99,VWS V14.01,2013-02-26 02:41:00,
2013-02-25 21:46:00,28.6,3.8,28.94,North,-999,-999.0,-999.0,34,-99.99,,,-99.99,VWS V14.01,2013-02-26 02:46:00,
2013-02-25 21:52:00,28.6,3.8,28.94,North,-999,-999.0,-999.0,34,-99.99,,,-99.99,VWS V14.01,2013-02-26 02:52:00,
2013-02-25 21:57:00,28.4,4.2,28.94,North,-999,-999.0,-999.0,35,-99.99,,,-99.99,VWS V14.01,2013-02-26 02:57:00,
2013-02-25 22:02:00,28.4,3.6,28.94,North,-999,-999.0,-999.0,34,-99.99,,,-99.99,VWS V14.01,2013-02-26 03:02:00,
2013-02-25 22:07:00,28.2,3.5,28.94,North,-999,-999.0,-999.0,34,-99.99,,,-99.99,VWS V14.01,2013-02-26 03:07:00,
2013-02-25 22:13:00,28.2,3.5,28.94,North,-999,-999.0,-999.0,34,-99.99,,,-99.99,VWS V14.01,2013-02-26 03:13:00,
2013-02-25 22:18:00,28.0,2.7,28.94,North,-999,-999.0,-999.0,33,-99.99,,,-99.99,VWS V14.01,2013-02-26 03:18:00,
2013-02-25 22:24:00,28.0,2.7,28.94,North,-999,-999.0,-999.0,33,-99.99,,,-99.99,VWS V14.01,2013-02-26 03:24:00,
2013-02-25 22:29:00,28.0,2.7,28.94,North,-999,-999.0,-999.0,33,-99.99,,,-99.99,VWS V14.01,2013-02-26 03:29:00,
2013-02-25 22:34:00,28.0,2.7,28.94,North,-999,-999.0,-999.0,33,-99.99,,,-99.99,VWS V14.01,2013-02-26 03:34:00,
2013-02-25 22:40:00,27.9,2.5,28.94,North,-999,-999.0,-999.0,33,-99.99,,,-99.99,VWS V14.01,2013-02-26 03:40:00,
2013-02-25 22:45:00,27.9,2.5,28.94,North,-999,-999.0,-999.0,33,-99.99,,,-99.99,VWS V14.01,2013-02-26 03:45:00,
2013-02-25 22:50:00,27.9,2.5,28.94,North,-999,-999.0,-999.0,33,-99.99,,,-99.99,VWS V14.01,2013-02-26 03:50:00,
2013-02-25 22:55:00,27.7,2.3,28.94,North,-999,-999.0,-999.0,33,-99.99,,,-99.99,VWS V14.01,2013-02-26 03:55:00,
2013-02-25 23:01:00,27.7,2.3,28.94,North,-999,-999.0,-999.0,33,-99.99,,,-99.99,VWS V14.01,2013-02-26 04:01:00,
2013-02-25 23:06:00,27.7,2.3,28.94,North,-999,-999.0,-999.0,33,-99.99,,,-99.99,VWS V14.01,2013-02-26 04:06:00,
2013-02-25 23:11:00,27.5,2.2,28.94,North,-999,-999.0,-999.0,33,-99.99,,,-99.99,VWS V14.01,2013-02-26 04:11:00,
2013-02-25 23:16:00,27.5,2.2,28.94,North,-999,-999.0,-999.0,33,-99.99,,,-99.99,VWS V14.01,2013-02-26 04:16:00,
2013-02-25 23:22:00,27.5,2.2,28.94,North,-999,-999.0,-999.0,33,-99.99,,,-99.99,VWS V14.01,2013-02-26 04:22:00,
2013-02-25 23:28:00,27.3,2.0,28.94,North,-999,-999.0,-999.0,33,-99.99,,,-99.99,VWS V14.01,2013-02-26 04:28:00,
2013-02-25 23:34:00,27.1,1.9,28.94,North,-999,-999.0,-999.0,33,-99.99,,,-99.99,VWS V14.01,2013-02-26 04:34:00,
2013-02-25 23:39:00,27.0,1.7,28.94,North,-999,-999.0,-999.0,33,-99.99,,,-99.99,VWS V14.01,2013-02-26 04:39:00,
2013-02-25 23:44:00,27.0,1.7,28.94,North,-999,-999.0,-999.0,33,-99.99,,,-99.99,VWS V14.01,2013-02-26 04:44:00,
2013-02-25 23:49:00,27.0,1.7,28.94,North,-999,-999.0,-999.0,33,-99.99,,,-99.99,VWS V14.01,2013-02-26 04:49:00,
2013-02-25 23:54:00,26.8,1.5,28.94,North,-999,-999.0,-999.0,33,-99.99,,,-99.99,VWS V14.01,2013-02-26 04:54:00,
2013-02-25 23:59:00,26.8,1.5,28.94,North,-999,-999.0,-999.0,33,-99.99,,,-99.99,VWS V14.01,2013-02-26 04:59:00,